Location: Archemont
(49.1579°N, 1.7598°E)
Time: 11:48:07
(UTC+00:00)

Cosmos 1606 - Pass Details

Date: 03 February 2023
Orbit: 488 x 509 km, 82.5° (Epoch: 26 March)

Event Time Altitude Azimuth Distance (km) Brightness Sun altitude
Rises 18:32:38 0° 358° (N) 2,655 6.3 -16.5°
Reaches altitude 10° 18:34:57 10° 9° (N) 1,763 5.2 -16.9°
Enters shadow 18:36:54 23° 31° (NNE) 1,143 4.1 -17.2°
